FW0690 Weather Reports


time (UTC)temp
F
wind
direction
speed
knots
gust
knots
rain 1hr
in
rain 24hr
in
rain mn
in
humidity
%
barometer
mb
20260506134441 91 0.0 0.0 0.00 0.00 0.00 19 1012.0
20260506133841 91 0.0 0.0 0.00 0.00 0.00 19 1012.0
20260506133241 91 0.0 0.0 0.00 0.00 0.00 19 1012.0
20260506132641 91 0.0 0.0 0.00 0.00 0.00 19 1012.0
20260506132041 91 0.0 0.0 0.00 0.00 0.00 19 1012.0
20260506131441 91 0.0 0.0 0.00 0.00 0.00 19 1012.0
20260506130841 89 0.0 0.0 0.00 0.00 0.00 19 1012.0
20260506130241 90 0.0 0.0 0.00 0.00 0.00 19 1012.1
20260506125641 91 0.0 0.0 0.00 0.00 0.00 20 1012.2
20260506125041 91 0.0 0.0 0.00 0.00 0.00 20 1012.2
20260506124441 90 0.0 0.0 0.00 0.00 0.00 20 1012.2
20260506123841 88 0.0 0.0 0.00 0.00 0.00 20 1012.2
20260506123242 89 0.0 0.0 0.00 0.00 0.00 20 1012.3
20260506122641 88 0.0 0.0 0.00 0.00 0.00 20 1012.4
20260506122041 87 0.0 0.0 0.00 0.00 0.00 20 1012.4
20260506121441 90 0.0 0.0 0.00 0.00 0.00 20 1012.5
20260506120841 91 0.0 0.0 0.00 0.00 0.00 20 1012.5
20260506120241 90 0.0 0.0 0.00 0.00 0.00 21 1012.6
20260506115641 88 0.0 0.0 0.00 0.00 0.00 21 1012.6
20260506115041 88 0.0 0.0 0.00 0.00 0.00 21 1012.7
20260506114441 88 0.0 0.0 0.00 0.00 0.00 21 1012.7
20260506113842 87 0.0 0.0 0.00 0.00 0.00 21 1012.8
20260506113242 87 0.0 0.0 0.00 0.00 0.00 21 1012.9
20260506112641 87 0.0 0.0 0.00 0.00 0.00 21 1012.9
20260506112041 87 0.0 0.0 0.00 0.00 0.00 21 1012.9
20260506111441 88 0.0 0.0 0.00 0.00 0.00 22 1012.9
20260506110841 87 0.0 0.0 0.00 0.00 0.00 22 1012.9
20260506110241 86 0.0 0.0 0.00 0.00 0.00 22 1013.0
20260506105641 85 0.0 0.0 0.00 0.00 0.00 23 1013.1
20260506105041 87 0.0 0.0 0.00 0.00 0.00 23 1013.1
20260506104441 85 0.0 0.0 0.00 0.00 0.00 23 1013.1
20260506103841 85 0.0 0.0 0.00 0.00 0.00 23 1013.1
20260506103241 85 0.0 0.0 0.00 0.00 0.00 23 1013.1
20260506102641 85 0.0 0.0 0.00 0.00 0.00 23 1013.1
20260506102041 86 0.0 0.0 0.00 0.00 0.00 23 1013.1
20260506101442 84 0.0 0.0 0.00 0.00 0.00 23 1013.2
20260506100842 85 0.0 0.0 0.00 0.00 0.00 24 1013.2
20260506100241 84 0.0 0.0 0.00 0.00 0.00 24 1013.3
20260506095641 83 0.0 0.0 0.00 0.00 0.00 24 1013.3
20260506095041 82 0.0 0.0 0.00 0.00 0.00 24 1013.3
20260506094441 81 0.0 0.0 0.00 0.00 0.00 24 1013.4
20260506093841 82 0.0 0.0 0.00 0.00 0.00 25 1013.4
20260506093241 80 0.0 0.0 0.00 0.00 0.00 25 1013.5
20260506092641 81 0.0 0.0 0.00 0.00 0.00 26 1013.4
20260506092041 80 0.0 0.0 0.00 0.00 0.00 27 1013.4
20260506091441 78 0.0 0.0 0.00 0.00 0.00 27 1013.5
20260506090841 78 0.0 0.0 0.00 0.00 0.00 27 1013.5
20260506090241 78 0.0 0.0 0.00 0.00 0.00 28 1013.5
20260506085641 78 0.0 0.0 0.00 0.00 0.00 28 1013.5
20260506085041 77 0.0 0.0 0.00 0.00 0.00 29 1013.5
20260506084441 75 0.0 0.0 0.00 0.00 0.00 29 1013.4
20260506083841 75 0.0 0.0 0.00 0.00 0.00 29 1013.5
20260506083241 76 0.0 0.0 0.00 0.00 0.00 31 1013.5
20260506082641 76 0.0 0.0 0.00 0.00 0.00 31 1013.4
20260506082041 75 0.0 0.0 0.00 0.00 0.00 32 1013.4
20260506081441 74 0.0 0.0 0.00 0.00 0.00 33 1013.4
20260506080841 74 0.0 0.0 0.00 0.00 0.00 35 1013.4
20260506080241 73 0.0 0.0 0.00 0.00 0.00 35 1013.4
20260506073241 69 0.0 0.0 0.00 0.00 0.00 39 1013.5
20260506072641 69 0.0 0.0 0.00 0.00 0.00 40 1013.5
20260506072041 68 0.0 0.0 0.00 0.00 0.00 40 1013.4
20260506071441 67 0.0 0.0 0.00 0.00 0.00 41 1013.4
20260506070841 67 0.0 0.0 0.00 0.00 0.00 41 1013.5
20260506070241 66 0.0 0.0 0.00 0.00 0.00 41 1013.5
20260506062041 63 0.0 0.0 0.00 0.00 0.00 47 1013.5
20260506061441 62 0.0 0.0 0.00 0.00 0.00 48 1013.5
20260506060841 62 0.0 0.0 0.00 0.00 0.00 49 1013.5
20260506060241 61 0.0 0.0 0.00 0.00 0.00 49 1013.5
20260506050841 57 0.0 0.0 0.00 0.00 0.00 54 1013.5
20260506050241 56 0.0 0.0 0.00 0.00 0.00 54 1013.5
20260506045041 56 0.0 0.0 0.00 0.00 0.00 55 1013.5
20260506044441 56 0.0 0.0 0.00 0.00 0.00 55 1013.4
20260506043841 55 0.0 0.0 0.00 0.00 0.00 56 1013.3
20260506043241 55 0.0 0.0 0.00 0.00 0.00 56 1013.2
20260506042641 55 0.0 0.0 0.00 0.00 0.00 56 1013.1
20260506042041 54 0.0 0.0 0.00 0.00 0.00 57 1013.1
20260506041441 54 0.0 0.0 0.00 0.00 0.00 57 1013.1
20260506040841 54 0.0 0.0 0.00 0.00 0.00 57 1013.0
20260506040241 53 0.0 0.0 0.00 0.00 0.00 56 1013.0
20260506035641 53 0.0 0.0 0.00 0.00 0.00 56 1013.0
20260506035041 54 0.0 0.0 0.00 0.00 0.00 56 1012.9
20260506034441 53 0.0 0.0 0.00 0.00 0.00 55 1013.0
20260506033841 54 0.0 0.0 0.00 0.00 0.00 55 1012.9
20260506033241 54 0.0 0.0 0.00 0.00 0.00 55 1013.0
20260506032641 53 0.0 0.0 0.00 0.00 0.00 55 1012.9
20260506032041 53 0.0 0.0 0.00 0.00 0.00 55 1012.9
20260506031441 54 0.0 0.0 0.00 0.00 0.00 55 1012.9
20260506030841 54 0.0 0.0 0.00 0.00 0.00 55 1012.8
20260506030241 54 0.0 0.0 0.00 0.00 0.00 54 1012.8
20260506025641 54 0.0 0.0 0.00 0.00 0.00 54 1012.7
20260506025041 54 0.0 0.0 0.00 0.00 0.00 54 1012.6
20260506024441 54 0.0 0.0 0.00 0.00 0.00 54 1012.6
20260506023841 54 0.0 0.0 0.00 0.00 0.00 54 1012.5
20260506023241 54 0.0 0.0 0.00 0.00 0.00 54 1012.5
20260506022640 54 0.0 0.0 0.00 0.00 0.00 54 1012.6
20260506022041 54 0.0 0.0 0.00 0.00 0.00 54 1012.5
20260506021440 55 0.0 0.0 0.00 0.00 0.00 53 1012.4
20260506020841 55 0.0 0.0 0.00 0.00 0.00 53 1012.4
20260506020241 55 0.0 0.0 0.00 0.00 0.00 53 1012.5
20260506015640 55 0.0 0.0 0.00 0.00 0.00 53 1012.5
20260506015040 55 0.0 0.0 0.00 0.00 0.00 53 1012.5
20260506014440 55 0.0 0.0 0.00 0.00 0.00 53 1012.5
20260506013840 56 0.0 0.0 0.00 0.00 0.00 53 1012.5
20260506013240 56 0.0 0.0 0.00 0.00 0.00 53 1012.5
20260506012640 56 0.0 0.0 0.00 0.00 0.00 53 1012.5
20260506012040 56 0.0 0.0 0.00 0.00 0.00 53 1012.5
20260506011440 56 0.0 0.0 0.00 0.00 0.00 52 1012.4
20260506010840 56 0.0 0.0 0.00 0.00 0.00 52 1012.4
20260506010240 56 0.0 0.0 0.00 0.00 0.00 52 1012.4
20260506005640 56 0.0 0.0 0.00 0.00 0.00 52 1012.4
20260506005040 57 0.0 0.0 0.00 0.00 0.00 51 1012.4
20260506004441 57 0.0 0.0 0.00 0.00 0.00 51 1012.4
20260506003840 57 0.0 0.0 0.00 0.00 0.00 50 1012.4
20260506003240 58 0.0 0.0 0.00 0.00 0.00 50 1012.4
20260506002640 58 0.0 0.0 0.00 0.00 0.00 50 1012.3
20260506002040 58 0.0 0.0 0.00 0.00 0.00 49 1012.2
20260506001440 58 0.0 0.0 0.00 0.00 0.00 49 1012.4
20260506000840 59 0.0 0.0 0.00 0.00 0.00 48 1012.3
20260506000240 59 0.0 0.0 0.00 0.00 0.00 47 1012.3
20260505235640 60 0.0 0.0 0.00 0.00 0.00 47 1012.3
20260505235040 60 0.0 0.0 0.00 0.00 0.00 46 1012.2
20260505234440 60 0.0 0.0 0.00 0.00 0.00 46 1012.2
20260505233840 60 0.0 0.0 0.00 0.00 0.00 45 1012.2
20260505233240 61 0.0 0.0 0.00 0.00 0.00 44 1012.2
20260505232640 61 0.0 0.0 0.00 0.00 0.00 44 1012.2
20260505232040 62 0.0 0.0 0.00 0.00 0.00 43 1012.2
20260505231440 62 0.0 0.0 0.00 0.00 0.00 42 1012.2
20260505230840 62 0.0 0.0 0.00 0.00 0.00 41 1012.2
20260505230240 63 0.0 0.0 0.00 0.00 0.00 39 1012.2
20260505225640 64 0.0 0.0 0.00 0.00 0.00 39 1012.2
20260505225040 64 0.0 0.0 0.00 0.00 0.00 39 1012.2
20260505224440 64 0.0 0.0 0.00 0.00 0.00 38 1012.2
20260505223840 64 0.0 0.0 0.00 0.00 0.00 38 1012.2
20260505223240 64 0.0 0.0 0.00 0.00 0.00 38 1012.3
20260505222640 64 0.0 0.0 0.00 0.00 0.00 38 1012.3
20260505222040 64 0.0 0.0 0.00 0.00 0.00 37 1012.3
20260505221440 64 0.0 0.0 0.00 0.00 0.00 37 1012.3
20260505220840 64 0.0 0.0 0.00 0.00 0.00 37 1012.3
20260505220240 64 0.0 0.0 0.00 0.00 0.00 37 1012.3
20260505215640 65 0.0 0.0 0.00 0.00 0.00 37 1012.3
20260505215040 65 0.0 0.0 0.00 0.00 0.00 36 1012.2
20260505214440 65 0.0 0.0 0.00 0.00 0.00 36 1012.2
20260505213840 65 0.0 0.0 0.00 0.00 0.00 36 1012.2
20260505213240 65 0.0 0.0 0.00 0.00 0.00 37 1012.2
20260505212640 65 0.0 0.0 0.00 0.00 0.00 37 1012.2
20260505212040 65 0.0 0.0 0.00 0.00 0.00 37 1012.3
20260505211440 65 0.0 0.0 0.00 0.00 0.00 37 1012.3
20260505210840 65 0.0 0.0 0.00 0.00 0.00 37 1012.3
20260505210240 66 0.0 0.0 0.00 0.00 0.00 37 1012.3
20260505205640 66 0.0 0.0 0.00 0.00 0.00 37 1012.3
20260505205040 66 0.0 0.0 0.00 0.00 0.00 37 1012.3
20260505204440 66 0.0 0.0 0.00 0.00 0.00 37 1012.3
20260505203840 66 0.0 0.0 0.00 0.00 0.00 37 1012.4
20260505203240 66 0.0 0.0 0.00 0.00 0.00 37 1012.3
20260505202640 66 0.0 0.0 0.00 0.00 0.00 37 1012.3
20260505202040 66 0.0 0.0 0.00 0.00 0.00 37 1012.3
20260505201440 67 0.0 0.0 0.00 0.00 0.00 37 1012.2
20260505200840 67 0.0 0.0 0.00 0.00 0.00 37 1012.2
20260505200240 67 0.0 0.0 0.00 0.00 0.00 37 1012.2
20260505195640 67 0.0 0.0 0.00 0.00 0.00 37 1012.2
20260505195040 67 0.0 0.0 0.00 0.00 0.00 36 1012.2
20260505194440 67 0.0 0.0 0.00 0.00 0.00 36 1012.2
20260505193840 67 0.0 0.0 0.00 0.00 0.00 36 1012.2
20260505193240 68 0.0 0.0 0.00 0.00 0.00 36 1012.1
20260505192640 68 0.0 0.0 0.00 0.00 0.00 36 1012.1
20260505192040 68 0.0 0.0 0.00 0.00 0.00 36 1012.1
20260505191440 68 0.0 0.0 0.00 0.00 0.00 36 1012.1
20260505190840 68 0.0 0.0 0.00 0.00 0.00 36 1012.1
20260505190240 69 0.0 0.0 0.00 0.00 0.00 36 1012.0
20260505185640 69 0.0 0.0 0.00 0.00 0.00 36 1012.1
20260505185040 69 0.0 0.0 0.00 0.00 0.00 36 1012.1
20260505184440 69 0.0 0.0 0.00 0.00 0.00 36 1012.1
20260505183840 69 0.0 0.0 0.00 0.00 0.00 36 1012.1
20260505183240 69 0.0 0.0 0.00 0.00 0.00 36 1012.0
20260505182640 69 0.0 0.0 0.00 0.00 0.00 36 1012.0
20260505182040 70 0.0 0.0 0.00 0.00 0.00 36 1012.0
20260505181440 70 0.0 0.0 0.00 0.00 0.00 36 1011.9
20260505180840 70 0.0 0.0 0.00 0.00 0.00 35 1011.8
20260505180240 71 0.0 0.0 0.00 0.00 0.00 35 1011.8
20260505175640 71 0.0 0.0 0.00 0.00 0.00 35 1011.8
20260505175040 71 0.0 0.0 0.00 0.00 0.00 35 1011.7
20260505174440 71 0.0 0.0 0.00 0.00 0.00 35 1011.7
20260505173840 71 0.0 0.0 0.00 0.00 0.00 35 1011.7
20260505173240 72 0.0 0.0 0.00 0.00 0.00 34 1011.7
20260505172640 72 0.0 0.0 0.00 0.00 0.00 34 1011.6
20260505172040 72 0.0 0.0 0.00 0.00 0.00 33 1011.7
20260505171440 73 0.0 0.0 0.00 0.00 0.00 33 1011.7
20260505170840 73 0.0 0.0 0.00 0.00 0.00 33 1011.6
20260505170240 73 0.0 0.0 0.00 0.00 0.00 32 1011.6
20260505165640 74 0.0 0.0 0.00 0.00 0.00 32 1011.6
20260505165040 74 0.0 0.0 0.00 0.00 0.00 32 1011.6
20260505164440 74 0.0 0.0 0.00 0.00 0.00 32 1011.6
20260505163840 74 0.0 0.0 0.00 0.00 0.00 31 1011.6
20260505163240 74 0.0 0.0 0.00 0.00 0.00 31 1011.5
20260505162640 75 0.0 0.0 0.00 0.00 0.00 31 1011.5
20260505162040 75 0.0 0.0 0.00 0.00 0.00 31 1011.5
20260505161440 75 0.0 0.0 0.00 0.00 0.00 30 1011.5
20260505160840 75 0.0 0.0 0.00 0.00 0.00 30 1011.5
20260505160240 75 0.0 0.0 0.00 0.00 0.00 30 1011.5
20260505153240 77 0.0 0.0 0.00 0.00 0.00 28 1011.7
20260505152640 77 0.0 0.0 0.00 0.00 0.00 28 1011.7
20260505152040 78 0.0 0.0 0.00 0.00 0.00 27 1011.8
20260505151440 78 0.0 0.0 0.00 0.00 0.00 27 1011.8
20260505150840 78 0.0 0.0 0.00 0.00 0.00 26 1011.9
20260505150240 78 0.0 0.0 0.00 0.00 0.00 25 1012.0
20260505140240 87 0.0 0.0 0.00 0.00 0.00 22 1011.9